Voltar ao catálogo

ATLAS 5 CENTAUR DEB

AtivoHEO
NORAD 44675·DEBRIS·🇺🇸 United States

Lançado Oct 17, 2018 de Cape Canaveral Space Force Station

Loading…

Próximas Passagens (próximas 24 horas)

TLE

AtualizadoSource: Space-Track

Época: Sep 14, 2026, 06:37 UTC

1 44675U 18079AM  26257.27633717 -.00000181  00000-0  00000-0 0  9990
2 44675  13.5196  30.3481 4671546 321.9273  12.8159  1.80467886 48569

Acompanhe ATLAS 5 CENTAUR DEB em tempo real com AllMySat

Download on the App Store